Date String (YYYY-MM-DD hh:mm:ss) UTC,Instrument flags,absolute air pressure of the measurement (hPa),sample flow rate (lpm),inlet stack bypass flow (lpm),air temperature of the measurement (°C),ambient temperature measured by the external sensor (°C),aerosol sample conditioner tube jacket temperature (°C),OPC LED temperature (°C),internal box temperature (°C),relative humidity of the measurement (%),span deviation,mass concentration of particles derived from Lorenz-Mie calculation of OPC scattering (μg/m³),mass concentration of particles derived from Lorenz-Mie calculation of OPC scattering (μg/m³),mass concentration of particles derived from Lorenz-Mie calculation of OPC scattering (μg/m³)
DateTimeUTC,F1_M11,P_M11,Q1_M11,Q2_M11,T1_M11,T2_M11,T3_M11,T4_M11,T5_M11,U1_M11,ZSPAN_M11,X0_M11,X2_M11,X1_M11
2024-01-26 14:00:00,SystemResetWarning,0832.0,5.00,000.00,020.8,019.8,000.0,029.1,022.2,20.4,0000.3,0007.48,0005.30,0005.14
2024-01-26 14:01:00,SystemResetWarning,0832.0,5.00,000.00,020.8,019.8,000.0,029.1,022.2,20.4,-000.6,0007.51,0005.31,0005.14
2024-01-26 14:02:00,SystemResetWarning,0832.0,5.00,000.00,020.8,019.8,000.0,029.1,022.2,20.4,-000.5,0007.56,0005.34,0005.15
2024-01-26 14:03:00,SystemResetWarning,0832.0,4.99,000.00,020.8,019.8,000.0,029.1,022.2,20.3,-000.2,0007.64,0005.36,0005.14
2024-01-26 14:04:00,SystemResetWarning,0832.0,4.99,000.00,020.8,019.8,000.0,029.1,022.2,20.3,-000.6,0007.61,0005.35,0005.15
2024-01-26 14:05:00,SystemResetWarning,0832.0,5.00,000.00,020.8,019.8,000.0,029.1,022.2,20.2,0000.2,0007.56,0005.33,0005.15
2024-01-26 14:06:00,SystemResetWarning,0832.0,5.01,000.00,020.8,019.8,000.0,029.1,022.2,20.2,0000.1,0007.52,0005.32,0005.15
2024-01-26 14:07:00,SystemResetWarning,0832.1,5.00,000.00,020.8,019.8,000.0,029.1,022.2,20.2,-000.1,0007.52,0005.32,0005.15
2024-01-26 14:08:00,SystemResetWarning,0832.0,5.00,000.00,020.8,019.8,000.0,029.1,022.2,20.2,-000.1,0007.68,0005.32,0005.16
2024-01-26 14:09:00,SystemResetWarning,0832.0,4.98,000.00,020.8,019.8,000.0,029.1,022.2,20.2,0000.3,0007.73,0005.31,0005.16
2024-01-26 14:10:00,SystemResetWarning,0832.1,5.00,000.00,020.8,019.8,000.0,029.1,022.2,20.2,0000.3,0007.79,0005.34,0005.18
2024-01-26 14:11:00,SystemResetWarning,0832.1,5.01,000.00,020.8,019.8,000.0,029.1,022.2,20.2,0000.2,0007.85,0005.36,0005.19
2024-01-26 14:12:00,SystemResetWarning,0832.1,5.00,000.00,020.8,019.8,000.0,029.1,022.2,20.1,0000.7,0007.92,0005.38,0005.19
2024-01-26 14:13:00,SystemResetWarning,0832.1,5.00,000.00,020.8,019.8,000.0,029.1,022.2,20.0,0000.8,0007.93,0005.38,0005.20
2024-01-26 14:14:00,SystemResetWarning,0832.2,5.00,000.00,020.8,019.7,000.0,029.1,022.2,20.0,0000.5,0007.89,0005.37,0005.21
2024-01-26 14:15:00,SystemResetWarning,0832.2,5.00,000.00,020.8,019.7,000.0,029.1,022.2,19.9,0000.6,0007.84,0005.35,0005.20
2024-01-26 14:16:00,SystemResetWarning,0832.2,5.00,000.00,020.8,019.7,000.0,029.1,022.2,19.8,0000.7,0008.04,0005.38,0005.21
2024-01-26 14:17:00,SystemResetWarning,0832.2,5.00,000.00,020.8,019.7,000.0,029.1,022.2,19.9,0000.7,0008.18,0005.40,0005.21
2024-01-26 14:18:00,SystemResetWarning,0832.2,5.00,000.00,020.8,019.7,000.0,029.1,022.2,19.8,0001.1,0008.23,0005.42,0005.21
2024-01-26 14:19:00,SystemResetWarning,0832.2,5.00,000.00,020.8,019.7,000.0,029.1,022.2,19.8,0001.3,0008.11,0005.42,0005.22
2024-01-26 14:20:00,SystemResetWarning,0832.2,5.00,000.00,020.8,019.8,000.0,029.1,022.2,19.7,0001.2,0007.99,0005.42,0005.22
2024-01-26 14:21:00,SystemResetWarning,0832.3,5.01,000.00,020.8,019.8,000.0,029.1,022.2,19.7,0001.0,0008.02,0005.42,0005.22
2024-01-26 14:22:00,SystemResetWarning,0832.3,5.00,000.00,020.8,019.8,000.0,029.1,022.2,19.7,0000.4,0008.28,0005.43,0005.22
2024-01-26 14:23:00,SystemResetWarning,0832.3,4.99,000.00,020.8,019.8,000.0,029.1,022.2,19.6,0000.1,0008.18,0005.41,0005.22
2024-01-26 14:24:00,SystemResetWarning,0832.3,5.00,000.00,020.8,019.8,000.0,029.1,022.2,19.5,-000.2,0008.19,0005.41,0005.23
2024-01-26 14:25:00,SystemResetWarning,0832.3,4.99,000.00,020.8,019.8,000.0,029.1,022.2,19.5,-000.2,0008.27,0005.43,0005.24
2024-01-26 14:26:00,SystemResetWarning,0832.3,5.00,000.00,020.8,019.8,000.0,029.1,022.2,19.4,-000.3,0008.27,0005.44,0005.24
2024-01-26 14:27:00,SystemResetWarning,0832.3,5.01,000.00,020.8,019.8,000.0,029.1,022.2,19.4,0000.0,0008.27,0005.44,0005.25
2024-01-26 14:28:00,SystemResetWarning,0832.3,5.00,000.00,020.8,019.8,000.0,029.1,022.2,19.4,-000.1,0008.14,0005.45,0005.26
2024-01-26 14:29:00,SystemResetWarning,0832.3,4.99,000.00,020.8,019.8,000.0,029.1,022.2,19.4,-000.5,0008.49,0005.47,0005.28
2024-01-26 14:30:00,SystemResetWarning,0832.4,5.00,000.00,020.8,019.8,000.0,029.1,022.2,19.4,-000.7,0008.88,0005.48,0005.30
2024-01-26 14:31:00,SystemResetWarning,0832.4,4.99,000.00,020.8,019.8,000.0,029.1,022.2,19.4,-000.8,0008.94,0005.51,0005.32
2024-01-26 14:32:00,SystemResetWarning,0832.4,5.00,000.00,020.8,019.8,000.0,029.1,022.2,19.4,-001.1,0008.98,0005.54,0005.34
2024-01-26 14:33:00,SystemResetWarning,0832.4,5.00,000.00,020.8,019.8,000.0,029.1,022.2,19.4,-000.9,0008.80,0005.55,0005.35
2024-01-26 14:34:00,SystemResetWarning,0832.5,4.99,000.00,020.8,019.8,000.0,029.1,022.2,19.3,-000.5,0008.70,0005.56,0005.37
2024-01-26 14:35:00,SystemResetWarning,0832.5,5.00,000.00,020.8,019.8,000.0,029.1,022.2,19.3,-000.2,0008.73,0005.60,0005.39
2024-01-26 14:36:00,SystemResetWarning,0832.5,5.00,000.00,020.8,019.8,000.0,029.1,022.2,19.2,-000.3,0008.65,0005.60,0005.40
2024-01-26 14:37:00,SystemResetWarning,0832.5,5.00,000.00,020.8,019.8,000.0,029.1,022.2,19.2,-000.2,0008.64,0005.62,0005.42
2024-01-26 14:38:00,SystemResetWarning,0832.5,5.00,000.00,020.8,019.8,000.0,029.1,022.2,19.2,-000.5,0008.74,0005.67,0005.45
2024-01-26 14:39:00,SystemResetWarning,0832.6,5.00,000.00,020.8,019.9,000.0,029.1,022.2,19.2,-000.6,0008.75,0005.69,0005.47
2024-01-26 14:40:00,SystemResetWarning,0832.5,5.01,000.00,020.8,019.9,000.0,029.1,022.2,19.3,-000.4,0008.60,0005.69,0005.47
2024-01-26 14:41:00,SystemResetWarning,0832.5,5.01,000.00,020.8,019.9,000.0,029.1,022.2,19.3,0000.3,0008.05,0005.68,0005.46
2024-01-26 14:42:00,SystemResetWarning,0832.5,4.99,000.00,020.8,019.9,000.0,029.1,022.2,19.4,0000.7,0008.20,0005.68,0005.46
2024-01-26 14:43:00,SystemResetWarning,0832.5,4.99,000.00,020.8,019.9,000.0,029.1,022.2,19.4,0001.2,0008.48,0005.70,0005.47
2024-01-26 14:44:00,SystemResetWarning,0832.5,5.00,000.00,020.8,019.9,000.0,029.1,022.2,19.3,0001.8,0008.48,0005.68,0005.47
2024-01-26 14:45:00,SystemResetWarning,0832.5,5.00,000.00,020.8,019.9,000.0,029.1,022.2,19.2,0001.8,0008.52,0005.68,0005.46
2024-01-26 14:46:00,SystemResetWarning,0832.6,5.01,000.00,020.8,019.9,000.0,029.1,022.2,19.0,0001.1,0008.52,0005.67,0005.44
2024-01-26 14:47:00,SystemResetWarning,0832.5,5.00,000.00,020.8,019.9,000.0,029.1,022.2,19.1,0001.0,0008.49,0005.63,0005.43
2024-01-26 14:48:00,SystemResetWarning,0832.5,4.99,000.00,020.8,019.9,000.0,029.1,022.2,19.0,0001.1,0008.46,0005.61,0005.42
2024-01-26 14:49:00,SystemResetWarning,0832.6,4.99,000.00,020.8,019.9,000.0,029.1,022.2,19.0,0001.4,0008.60,0005.59,0005.40
2024-01-26 14:50:00,SystemResetWarning,0832.6,5.01,000.00,020.8,019.8,000.0,029.1,022.2,19.0,0001.4,0008.71,0005.56,0005.38
2024-01-26 14:51:00,SystemResetWarning,0832.7,5.01,000.00,020.8,019.8,000.0,029.1,022.2,19.0,0001.5,0009.06,0005.53,0005.36
2024-01-26 14:52:00,SystemResetWarning,0832.6,4.99,000.00,020.8,019.8,000.0,029.1,022.2,18.9,0001.6,0009.31,0005.53,0005.35
2024-01-26 14:53:00,SystemResetWarning,0832.6,4.99,000.00,020.8,019.8,000.0,029.1,022.2,19.1,0001.2,0009.36,0005.54,0005.34
2024-01-26 14:54:00,SystemResetWarning,0832.6,5.01,000.00,020.8,019.8,000.0,029.1,022.2,19.1,0000.5,0008.96,0005.50,0005.32
2024-01-26 14:55:00,SystemResetWarning,0832.7,5.01,000.00,020.8,019.8,000.0,029.1,022.2,18.9,-000.0,0008.97,0005.49,0005.31
2024-01-26 14:56:00,SystemResetWarning,0832.7,5.00,000.00,020.8,019.8,000.0,029.1,022.2,18.9,-000.5,0009.04,0005.46,0005.28
2024-01-26 14:57:00,SystemResetWarning,0832.7,5.00,000.00,020.8,019.8,000.0,029.1,022.1,18.9,-000.0,0009.33,0005.44,0005.27
2024-01-26 14:58:00,SystemResetWarning,0832.7,5.00,000.00,020.8,019.8,000.0,029.1,022.1,19.0,0000.4,0009.36,0005.42,0005.24
2024-01-26 14:59:00,SystemResetWarning,0832.7,5.00,000.00,020.8,019.8,000.0,029.1,022.1,19.1,0000.2,0009.36,0005.40,0005.22
